This is the latest recevied weather packets stored in our database for station/object W0VI. If no packets are shown the sender has not sent any weather packets the latest 10 day(s).
| Time | Temp. | Humidity | Pressure | Rain* | Wind** | Luminosity | Snow |
|---|---|---|---|---|---|---|---|
| 1777850110 | 21.11° C | 25% | 1004.5 hPa | 0 mm | - | 188 W/m² | - |
| 1777849806 | 21.11° C | 25% | 1004.5 hPa | 0 mm | - | 225 W/m² | - |
| 1777849503 | 21.67° C | 25% | 1004.4 hPa | 0 mm | - | 215 W/m² | - |
| 1777849200 | 21.11° C | 24% | 1004.6 hPa | 0 mm | - | 235 W/m² | - |
| 1777848896 | 21.11° C | 26% | 1004.6 hPa | 0 mm | - | 250 W/m² | - |
| 1777848592 | 21.11° C | 25% | 1004.7 hPa | 0 mm | - | 265 W/m² | - |
| 1777848289 | 20.56° C | 26% | 1004.8 hPa | 0 mm | - | 277 W/m² | - |
| 1777847987 | 21.11° C | 26% | 1004.9 hPa | 0 mm | - | 239 W/m² | - |
| 1777847685 | 21.11° C | 26% | 1004.7 hPa | 0 mm | - | 294 W/m² | - |
| 1777847380 | 21.11° C | 26% | 1005 hPa | 0 mm | - | 299 W/m² | - |
| 1777847079 | 21.67° C | 25% | 1004.8 hPa | 0 mm | - | 324 W/m² | - |
| 1777846777 | 21.67° C | 24% | 1005 hPa | 0 mm | - | 326 W/m² | - |
| 1777846475 | 21.11° C | 24% | 1005 hPa | 0 mm | - | 354 W/m² | - |
| 1777846171 | 21.11° C | 24% | 1005 hPa | 0 mm | - | 355 W/m² | - |
| 1777845867 | 21.11° C | 24% | 1005.1 hPa | 0 mm | - | 357 W/m² | - |
| 1777845565 | 21.11° C | 25% | 1005 hPa | 0 mm | - | 395 W/m² | - |
| 1777845262 | 20.56° C | 25% | 1005.4 hPa | 0 mm | - | 400 W/m² | - |
| 1777844959 | 21.11° C | 25% | 1005 hPa | 0 mm | - | 387 W/m² | - |
| 1777844656 | 21.11° C | 25% | 1005.4 hPa | 0 mm | - | 397 W/m² | - |
| 1777844354 | 21.11° C | 25% | 1005.5 hPa | 0 mm | - | 389 W/m² | - |
| 1777844052 | 21.11° C | 24% | 1005.2 hPa | 0 mm | - | 352 W/m² | - |
| 1777843748 | 21.67° C | 24% | 1005.5 hPa | 0 mm | - | 432 W/m² | - |
| 1777843446 | 21.11° C | 24% | 1005.2 hPa | 0 mm | - | 431 W/m² | - |
| 1777843143 | 21.11° C | 24% | 1005.5 hPa | 0 mm | - | 447 W/m² | - |
| 1777842840 | 21.11° C | 23% | 1005.5 hPa | 0 mm | - | 478 W/m² | - |
* Rain latest hour (hover to see other rain measurements)
** Current wind speed in m/s (hover to see current wind gust speed)